#timestamp,LO_Frequency,Hit,StdDev 
1620021615.6,286046996.5,N
1620021635.4,286046996.8,N
1620021655.3,286046997.2,N
1620021675.1,286046999.4,N
1620021695.8,286046997.3,N
1620021715.7,286046996.7,N
1620021735.5,286046997.6,N
1620021755.4,286046997.3,N
1620021775.2,286046997.4,N
1620021795.0,286046997.8,N
1620021795.9,286046997.8,N
1620021815.8,286046997.9,N
1620021835.6,286046997.0,N
1620021855.4,286046996.6,N
1620021875.3,286046997.7,N
1620021895.1,286046996.6,N
1620021915.9,286046999.2,N
1620021935.7,286046997.4,N
1620021955.5,286046998.5,N
1620021975.4,286047001.0,N
1620021995.2,286046999.4,N
1620022015.0,286046998.2,N
1620022015.9,286046998.2,N
1620022035.8,286047000.6,N
1620022055.6,286047000.6,N
1620022075.5,286046998.3,N
1620022095.3,286047000.8,N
1620022115.1,286047000.7,N
1620022135.9,286046999.3,N
1620022155.7,286046999.3,N
1620022175.5,286046995.5,Y
1620022195.4,286046997.8,P
1620022215.2,286046995.1,P
1620022235.1,286046994.9,P
1620022236.0,286046994.9,Y
1620022255.8,286047000.7,P
1620022275.6,286047000.3,N
1620022295.5,286047000.5,N
1620022315.3,286047000.6,N
1620022335.1,286047001.2,N
1620022355.9,286047000.6,N
1620022375.7,286046998.5,N
1620022395.6,286047001.2,N
1620022415.4,286046998.2,N
1620022435.2,286047000.2,N
1620022455.1,286047002.6,N
1620022456.0,286047002.6,N
1620022475.8,286047001.3,N
1620022495.6,286047001.9,N
1620022515.5,286047002.1,N
1620022535.3,286047001.8,N
1620022555.2,286047004.2,N
1620022575.9,286047005.9,Y
1620022595.7,286047003.5,P
1620022615.6,286047001.8,N
1620022635.4,286047004.1,P
1620022655.3,286047005.9,Y
1620022675.1,286047000.8,P
1620022676.0,286047000.8,N
1620022695.8,286047000.0,N
1620022715.7,286047000.0,N
1620022735.5,286047002.4,N
1620022755.3,286047002.4,N
1620022775.2,286046998.6,N
1620022795.0,286047000.4,N
1620022795.9,286047000.4,N
1620022815.8,286046998.3,N
1620022835.6,286046998.3,N
1620022855.4,286047001.1,N
1620022875.3,286046998.4,N
1620022895.1,286047001.2,N
1620022915.8,286046996.9,N
1620022935.7,286046997.0,N
1620022955.5,286046999.6,N
1620022975.4,286047001.2,N
1620022995.2,286047000.7,N
1620023015.0,286046998.6,N
1620023015.9,286046998.6,N
1620023035.8,286046999.5,N
1620023055.6,286046997.7,N
1620023075.4,286046997.4,N
1620023095.3,286046996.9,N
1620023115.1,286046997.1,N
1620023135.9,286046998.0,N
1620023155.7,286046997.2,N
1620023175.5,286046996.0,N
1620023195.4,286046995.5,N
1620023215.2,286046996.7,N
1620023235.0,286046998.0,N
1620023235.9,286046998.0,N
1620023255.8,286046997.8,N
1620023275.6,286046997.9,N
1620023295.5,286046999.6,N
1620023315.3,286046999.6,N
1620023335.1,286046998.0,N
1620023355.9,286046997.5,N
1620023405.7,286046996.8,E
1620023415.7,286046998.9,N
1620023435.5,286046998.4,P
1620023455.3,286046999.0,P
1620023475.2,286046999.4,N
1620023495.0,286046999.6,N
1620023495.9,286046999.6,N
1620023515.8,286046996.5,Y
1620023535.6,286046998.4,P
1620023555.4,286046998.8,P
1620023575.3,286046998.4,P
1620023595.1,286046999.5,N
1620023615.8,286046999.9,N
1620023635.7,286047001.0,N
1620023655.5,286046998.6,N
1620023675.4,286047002.8,Y
1620023695.2,286047000.0,P
1620023715.0,286047000.5,N
1620023715.9,286047000.5,N
1620023735.8,286047000.8,N
1620023755.6,286047000.5,N
1620023775.4,286047000.1,N
1620023795.3,286047000.4,N
1620023815.1,286047000.7,N
1620023835.9,286047000.0,N
1620023855.7,286047000.2,N
1620023875.5,286046999.7,N
1620023895.4,286047001.3,N
1620023915.2,286047003.9,Y
1620023935.0,286047004.1,P
1620023935.9,286047004.1,N
1620023955.8,286047003.2,N
1620023975.6,286047003.7,N
1620023995.5,286047003.0,N
1620024015.3,286047004.4,Y
1620024035.1,286046998.2,P
1620024055.9,286047000.2,N
1620024075.7,286047002.8,N
1620024095.5,286047000.4,N
1620024115.4,286047000.7,N
1620024135.2,286047001.1,N
1620024155.1,286047000.8,N
1620024156.0,286047000.8,N
1620024175.8,286047001.2,N
1620024195.6,286046996.5,N
1620024215.5,286046997.2,N
1620024235.3,286046999.5,N
1620024255.1,286046999.4,N
1620024275.9,286046997.3,N
1620024295.7,286046997.0,N
1620024315.6,286046996.7,N
1620024335.4,286046997.2,N
1620024355.2,286046997.1,N
1620024375.1,286046998.6,N
1620024376.0,286046998.6,N
1620024395.8,286046998.6,N
1620024415.6,286046998.2,N
1620024435.5,286046999.8,N
1620024455.3,286047000.0,N
1620024475.2,286047002.2,N
1620024495.9,286047004.4,N
1620024515.7,286047001.3,N
1620024535.6,286047002.6,N
1620024555.4,286047000.2,N
1620024575.3,286047001.8,N
1620024595.1,286046998.6,N
1620024596.0,286046998.6,N
1620024615.8,286046998.1,N
1620024635.7,286046996.6,N
1620024655.5,286046996.7,N
1620024675.3,286046997.1,N
1620024695.2,286046997.0,N
1620024715.0,286046996.9,N
1620024715.9,286046996.9,N
1620024735.8,286047000.9,N
1620024755.6,286047000.9,N
1620024775.4,286046999.3,N
1620024795.3,286046997.2,N
1620024815.1,286046996.8,N
1620024835.8,286046999.5,N
1620024855.7,286046998.5,N
1620024875.5,286046998.4,N
1620024895.4,286046998.3,N
1620024915.2,286046999.3,N
1620024935.0,286047000.9,N
1620024935.9,286047000.9,N
1620024955.8,286047002.5,N
1620024975.6,286047004.4,N
1620024995.4,286047003.6,N
1620025015.3,286047003.1,N
1620025035.1,286047005.7,N
1620025055.9,286047005.8,N
1620025075.7,286047003.4,N
1620025095.5,286047005.6,N
1620025115.4,286047003.0,N
1620025135.2,286047003.4,N
1620025155.0,286047002.9,N
1620025155.9,286047002.9,N
1620025175.8,286047003.2,N
1620025195.6,286047001.8,N
